Canadian, TX

1:51 PM CDT on May 29, 2017 (GMT -0500)
Hemphill County

Weather History for KHHF - October, 2011

Change the Weather History Date:

Sunday, October 16, 2011

  Actual Average (KPPA) Record (KPPA)
Temperature  
Mean Temperature 65 °F -  
Max Temperature 77 °F 72 °F 100 °F (2016)
Min Temperature 53 °F 44 °F 30 °F (1969)
Growing Degree Days 15 (Base 50)    
Moisture  
Dew Point 45 °F    
Average Humidity 49    
Maximum Humidity 82    
Minimum Humidity 29    
Precipitation  
Precipitation 0.00 in - - ()
Sea Level Pressure  
Sea Level Pressure 29.98 in    
Wind  
Wind Speed 7 mph (NNW)    
Max Wind Speed 18 mph    
Max Gust Speed 24 mph    
Visibility 10 miles    
Events      
Averages and records for this station are not official NWS values.
T = Trace of Precipitation, MM = Missing Value Source: NWS Daily Summary

Daily Weather History Graph

Daily Weather History Graph

Search for Another Location

Airport or City:

Trip Planner

Search our weather history database for the weather conditions in past years. The results will help you decide how hot, cold, wet, or windy it might be!

Date:

Astronomy

Oct. 16, 2011 Rise Set
Actual Time 7:48 AM CDT 7:04 PM CDT
Civil Twilight 7:23 AM CDT 7:30 PM CDT
Nautical Twilight 6:53 AM CDT 8:00 PM CDT
Astronomical Twilight 6:23 AM CDT 8:29 PM CDT
Moon 10:00 PM CDT (10/16) 11:59 AM CDT (10/16)
Length of Visible Light 12h 07m
Length of Day
11h 15m
Waning Gibbous, 82% of the Moon is Illuminated
Oct 16
Waning Gibbous
Oct 19
Last Quarter
Oct 26
New
Nov 2
First Quarter
Nov 10
Full

Hourly Weather History & Observations

Time (CDT) Temp. Dew Point Humidity Pressure Visibility Wind Dir Wind Speed Gust Speed Precip Events Conditions
12:15 AM 62.6 °F 50.0 °F 63% 30.00 in 10.0 mi SW 4.6 mph - N/A   Clear
12:35 AM 64.4 °F 50.0 °F 59% 29.99 in 10.0 mi SW 8.1 mph - N/A   Clear
1:15 AM 62.6 °F 50.0 °F 63% 29.99 in 10.0 mi WSW 4.6 mph - N/A   Clear
1:35 AM 62.6 °F 50.0 °F 63% 29.98 in 10.0 mi WSW 8.1 mph - N/A   Clear
1:55 AM 60.8 °F 50.0 °F 68% 29.98 in 10.0 mi SW 6.9 mph - N/A   Clear
2:15 AM 62.6 °F 50.0 °F 63% 29.98 in 10.0 mi WSW 5.8 mph - N/A   Clear
2:35 AM 60.8 °F 50.0 °F 68% 29.98 in 10.0 mi WSW 6.9 mph - N/A   Clear
2:55 AM 62.6 °F 50.0 °F 63% 29.97 in 10.0 mi WSW 6.9 mph - N/A   Clear
3:15 AM 62.6 °F 50.0 °F 63% 29.97 in 10.0 mi SW 8.1 mph - N/A   Clear
3:55 AM 59.0 °F 50.0 °F 72% 29.96 in 10.0 mi Calm Calm - N/A   Clear
4:15 AM 60.8 °F 50.0 °F 68% 29.96 in 10.0 mi Calm Calm - N/A   Clear
4:35 AM 59.0 °F 50.0 °F 72% 29.96 in 10.0 mi Calm Calm - N/A   Clear
4:55 AM 60.8 °F 48.2 °F 63% 29.96 in 10.0 mi NNW 4.6 mph - N/A   Clear
5:15 AM 59.0 °F 48.2 °F 67% 29.96 in 10.0 mi NNE 3.5 mph - N/A   Clear
5:35 AM 55.4 °F 50.0 °F 82% 29.96 in 10.0 mi Calm Calm - N/A   Clear
6:15 AM 53.6 °F 48.2 °F 82% 29.97 in 10.0 mi Calm Calm - N/A   Clear
6:35 AM 59.0 °F 46.4 °F 63% 29.97 in 10.0 mi WSW 5.8 mph - N/A   Clear
6:55 AM 60.8 °F 48.2 °F 63% 29.96 in 10.0 mi WSW 10.4 mph - N/A   Clear
7:15 AM 60.8 °F 48.2 °F 63% 29.97 in 10.0 mi WSW 5.8 mph - N/A   Clear
7:35 AM 60.8 °F 46.4 °F 59% 29.97 in 10.0 mi West 3.5 mph - N/A   Clear
7:55 AM 60.8 °F 46.4 °F 59% 29.97 in 10.0 mi SW 4.6 mph - N/A   Clear
8:15 AM 60.8 °F 48.2 °F 63% 29.97 in 10.0 mi SSW 6.9 mph - N/A   Clear
8:35 AM 62.6 °F 48.2 °F 59% 29.97 in 10.0 mi SW 4.6 mph - N/A   Clear
8:55 AM 66.2 °F 50.0 °F 56% 29.98 in 10.0 mi Calm Calm - N/A   Clear
9:15 AM 69.8 °F 48.2 °F 46% 29.99 in 10.0 mi WSW 11.5 mph - N/A   Clear
9:35 AM 69.8 °F 48.2 °F 46% 29.99 in 10.0 mi WSW 12.7 mph 18.4 mph N/A   Clear
9:55 AM 73.4 °F 46.4 °F 38% 29.99 in 10.0 mi West 18.4 mph 24.2 mph N/A   Clear
10:15 AM 75.2 °F 46.4 °F 36% 30.01 in 10.0 mi West 15.0 mph 20.7 mph N/A   Clear
10:35 AM 71.6 °F 46.4 °F 41% 30.03 in 10.0 mi NW 16.1 mph 19.6 mph N/A   Clear
10:55 AM 71.6 °F 44.6 °F 38% 30.02 in 10.0 mi West 11.5 mph 23.0 mph N/A   Clear
11:15 AM 75.2 °F 42.8 °F 31% 30.02 in 10.0 mi WNW 13.8 mph 18.4 mph N/A   Clear
11:35 AM 75.2 °F 42.8 °F 31% 30.02 in 10.0 mi NW 12.7 mph 18.4 mph N/A   Clear
11:55 AM 75.2 °F 41.0 °F 29% 30.02 in 10.0 mi North 18.4 mph 23.0 mph N/A   Clear
12:15 PM 73.4 °F 39.2 °F 29% 30.02 in 10.0 mi NNW 12.7 mph 19.6 mph N/A   Clear
12:35 PM 73.4 °F 39.2 °F 29% 30.02 in 10.0 mi NNW 12.7 mph - N/A   Clear
12:55 PM 73.4 °F 39.2 °F 29% 30.02 in 10.0 mi NNW 13.8 mph - N/A   Clear
1:15 PM 73.4 °F 41.0 °F 31% 30.02 in 10.0 mi North 10.4 mph 17.3 mph N/A   Clear
1:35 PM 73.4 °F 41.0 °F 31% 30.02 in 10.0 mi North 12.7 mph - N/A   Clear
2:15 PM 73.4 °F 42.8 °F 33% 30.00 in 10.0 mi North 10.4 mph - N/A   Clear
2:35 PM 73.4 °F 42.8 °F 33% 29.99 in 10.0 mi NNW 9.2 mph 17.3 mph N/A   Clear
2:55 PM 77.0 °F 42.8 °F 29% 29.99 in 10.0 mi North 8.1 mph - N/A   Clear
3:15 PM 75.2 °F 42.8 °F 31% 29.98 in 10.0 mi North 8.1 mph 17.3 mph N/A   Clear
3:35 PM 77.0 °F 42.8 °F 29% 29.98 in 10.0 mi North 9.2 mph - N/A   Clear
3:55 PM 77.0 °F 42.8 °F 29% 29.98 in 10.0 mi NE 10.4 mph - N/A   Clear
4:15 PM 77.0 °F 42.8 °F 29% 29.97 in 10.0 mi NNE 10.4 mph 16.1 mph N/A   Clear
4:35 PM 77.0 °F 42.8 °F 29% 29.97 in 10.0 mi NE 10.4 mph - N/A   Clear
4:55 PM 77.0 °F 42.8 °F 29% 29.96 in 10.0 mi NE 10.4 mph 17.3 mph N/A   Clear
5:15 PM 77.0 °F 42.8 °F 29% 29.96 in 10.0 mi NE 12.7 mph - N/A   Clear
5:35 PM 75.2 °F 42.8 °F 31% 29.95 in 10.0 mi NE 10.4 mph - N/A   Clear
5:55 PM 75.2 °F 42.8 °F 31% 29.95 in 10.0 mi NE 10.4 mph - N/A   Clear
6:15 PM 73.4 °F 42.8 °F 33% 29.95 in 10.0 mi NNE 11.5 mph - N/A   Clear
6:35 PM 71.6 °F 42.8 °F 35% 29.96 in 10.0 mi NE 11.5 mph - N/A   Clear
7:15 PM 69.8 °F 42.8 °F 38% 29.96 in 10.0 mi NE 9.2 mph - N/A   Clear
7:35 PM 68.0 °F 42.8 °F 40% 29.97 in 10.0 mi NE 8.1 mph - N/A   Clear
7:55 PM 66.2 °F 42.8 °F 43% 29.97 in 10.0 mi NE 6.9 mph - N/A   Clear
8:15 PM 64.4 °F 42.8 °F 45% 29.97 in 10.0 mi NE 9.2 mph - N/A   Clear
8:35 PM 64.4 °F 42.8 °F 45% 29.98 in 10.0 mi NE 6.9 mph - N/A   Clear
8:55 PM 64.4 °F 42.8 °F 45% 29.98 in 10.0 mi ENE 5.8 mph - N/A   Clear
9:15 PM 62.6 °F 42.8 °F 48% 29.98 in 10.0 mi East 5.8 mph - N/A   Clear
9:35 PM 60.8 °F 42.8 °F 52% 29.98 in 10.0 mi ENE 5.8 mph - N/A   Clear
9:55 PM 59.0 °F 42.8 °F 55% 29.99 in 10.0 mi NE 4.6 mph - N/A   Clear
10:35 PM 59.0 °F 42.8 °F 55% 29.99 in 10.0 mi East 3.5 mph - N/A   Clear
10:55 PM 57.2 °F 42.8 °F 59% 29.98 in 10.0 mi East 3.5 mph - N/A   Clear
11:15 PM 55.4 °F 44.6 °F 67% 29.98 in 10.0 mi East 4.6 mph - N/A   Clear
11:35 PM 55.4 °F 44.6 °F 67% 29.99 in 10.0 mi Calm Calm - N/A   Clear
11:55 PM 55.4 °F 44.6 °F 67% 29.98 in 10.0 mi NE 3.5 mph - N/A   Clear